Terug naar catalogus

GARUDA 1

ActiefCommunicatieGEO
NORAD 26089·PAYLOAD·🇮🇩 Indonesia

Gelanceerd Feb 12, 2000 vanaf Baikonur Cosmodrome

Loading…

TLE

VersSource: Space-Track

Epoch: Sep 14, 2026, 03:36 UTC

1 26089U 00011A   26257.15001708  .00000014  00000-0  00000-0 0  9996
2 26089   9.8657  62.7512 0003996 153.8940 203.2060  0.99918760 42549

Volg GARUDA 1 in realtime met AllMySat

Download on the App Store